Weather History for Raton, NM

Change the Weather History Date:

Sunday, July 28, 2013

  Actual Average (KTAD) Record (KTAD)
Temperature  
Mean Temperature 72 °F 73 °F  
Max Temperature 86 °F 88 °F 98 °F (1960)
Min Temperature 60 °F 59 °F 50 °F (1990)
Degree Days  
Heating Degree Days 0 0  
Month to date heating degree days 0  
Since 1 June heating degree days 39  
Since 1 July heating degree days 0  
Cooling Degree Days 6 8  
Month to date cooling degree days 243  
Year to date cooling degree days 412  
Since 1 June cooling degree days 384  
Growing Degree Days 22 (Base 50)    
Moisture  
Dew Point 54 °F    
Average Humidity 61    
Maximum Humidity 87    
Minimum Humidity 33    
Precipitation  
Precipitation 0.14 in 0.09 in 0.63 in (2011)
Month to date precipitation 2.03  
Year to date precipitation 7.96  
Sea Level Pressure  
Sea Level Pressure 29.83 in    
Wind  
Wind Speed 8 mph (North)    
Max Wind Speed 21 mph    
Max Gust Speed 28 mph    
Visibility 10 miles    
Events Rain    
T = Trace of Precipitation, MM = Missing Value Source: NWS Daily Summary

Daily Weather History Graph

Daily Weather History Graph

Search for Another Location

Airport:

Trip Planner

Search our weather history database for the weather conditions in past years. The results will help you decide how hot, cold, wet, or windy it might be!

Date:

Astronomy

Jul. 28, 2013 Rise Set
Actual Time 6:00 AM MDT 8:07 PM MDT
Civil Twilight 5:31 AM MDT 8:36 PM MDT
Nautical Twilight 4:56 AM MDT 9:11 PM MDT
Astronomical Twilight 4:18 AM MDT 9:49 PM MDT
Moon 11:43 PM MDT 12:33 PM MDT
Length of Visible Light 15h 04m
Length of Day
14h 06m
Waning Gibbous, 60% of the Moon is Illuminated
Jul 28
Waning Gibbous
Jul 29
Last Quarter
Aug 6
New
Aug 14
First Quarter
Aug 20
Full

Hourly Weather History & Observations

Time (MDT) Temp. Dew Point Humidity Pressure Visibility Wind Dir Wind Speed Gust Speed Precip Events Conditions
12:53 AM 66.0 °F 50.0 °F 56% 29.85 in 10.0 mi ENE 5.8 mph - N/A   Clear
1:53 AM 64.9 °F 51.1 °F 61% 29.84 in 10.0 mi North 6.9 mph - N/A   Scattered Clouds
2:53 AM 64.9 °F 52.0 °F 63% 29.82 in 10.0 mi North 10.4 mph - N/A   Clear
3:53 AM 64.0 °F 53.1 °F 67% 29.81 in 10.0 mi NNE 9.2 mph - N/A   Partly Cloudy
4:53 AM 63.0 °F 53.1 °F 70% 29.80 in 10.0 mi NE 4.6 mph - N/A   Clear
5:53 AM 63.0 °F 52.0 °F 67% 29.84 in 10.0 mi NNE 4.6 mph - N/A   Clear
6:53 AM 64.0 °F 53.1 °F 67% 29.85 in 10.0 mi NE 3.5 mph - N/A   Clear
7:53 AM 66.0 °F 53.1 °F 63% 29.83 in 10.0 mi Calm Calm - N/A   Clear
8:53 AM 70.0 °F 52.0 °F 53% 29.83 in 10.0 mi West 3.5 mph - N/A   Clear
9:53 AM 72.0 °F 51.1 °F 48% 29.82 in 10.0 mi SW 6.9 mph - N/A   Clear
10:53 AM 75.0 °F 52.0 °F 44% 29.81 in 10.0 mi SW 11.5 mph - N/A   Clear
11:53 AM 78.1 °F 52.0 °F 40% 29.81 in 10.0 mi SW 9.2 mph - N/A   Partly Cloudy
12:53 PM 81.0 °F 51.1 °F 35% 29.76 in 10.0 mi SSW 10.4 mph - N/A   Partly Cloudy
1:53 PM 82.0 °F 50.0 °F 33% 29.73 in 10.0 mi Variable 5.8 mph - N/A   Mostly Cloudy
2:53 PM 82.0 °F 50.0 °F 33% 29.71 in 10.0 mi SW 12.7 mph 23.0 mph 0.00 in   Overcast
3:53 PM 75.0 °F 54.0 °F 48% 29.75 in 5.0 mi SSW 4.6 mph - 0.04 in Rain Light Rain
4:53 PM 72.0 °F 57.9 °F 61% 29.79 in 10.0 mi NE 19.6 mph 27.6 mph 0.00 in   Mostly Cloudy
5:53 PM 73.0 °F 57.0 °F 57% 29.80 in 10.0 mi NE 12.7 mph - N/A   Overcast
6:53 PM 70.0 °F 57.0 °F 63% 29.82 in 10.0 mi East 10.4 mph - N/A   Overcast
7:53 PM 66.9 °F 57.9 °F 73% 29.82 in 10.0 mi East 12.7 mph - N/A   Scattered Clouds
8:51 PM 62.6 °F 55.4 °F 77% 30.13 in 10.0 mi NNW 20.7 mph 27.6 mph 0.00 in Rain Light Rain
8:53 PM 61.0 °F 55.0 °F 81% 29.88 in 9.0 mi NNW 16.1 mph 27.6 mph 0.00 in Rain Light Rain
9:53 PM 62.1 °F 57.0 °F 84% 29.86 in 10.0 mi NNE 6.9 mph - 0.10 in   Partly Cloudy
10:53 PM 61.0 °F 57.0 °F 87% 29.85 in 10.0 mi North 6.9 mph - N/A   Clear
11:53 PM 60.1 °F 55.9 °F 86% 29.84 in 10.0 mi North 8.1 mph - N/A   Clear